Location: Lac de la Montagne noire
(46.1952°N, 74.2701°W)
Time: 08:32:45
(UTC-04:00)

Envisat - Pass Details

Date: 23 March 2019
Orbit: 764 x 766 km, 98.2° (Epoch: 24 April)

Event Time Altitude Azimuth Distance (km) Brightness Sun altitude
Rises 20:41:37 0° 206° (SSW) 3,220 6.3 -15.8°
Reaches altitude 10° 20:44:31 10° 223° (SW) 2,300 5.8 -16.2°
Maximum altitude 20:48:10 20° 269° (W) 1,729 5.7 -16.8°
Drops below altitude 10° 20:51:50 10° 316° (NW) 2,312 6.5 -17.4°
Sets 20:54:47 0° 333° (NNW) 3,243 7.0 -17.9°
